• MPC Preparation (Info)

  • MPEC 2016-C97 : 2016 CF32

    The following Minor Planet Electronic Circular may be linked-to from your own Web pages, but must not otherwise be redistributed electronically.

    A form allowing access to any MPEC is at the bottom of this page.


    Read MPEC 2016-C96 Read MPEC 2016-C98


    M.P.E.C. 2016-C97                                Issued 2016 Feb. 8, 17:00 UT
    
         The Minor Planet Electronic Circulars contain information on unusual
             minor planets and routine data on comets.  They are published
        on behalf of Division F of the International Astronomical Union by the
              Minor Planet Center, Smithsonian Astrophysical Observatory,
                              Cambridge, MA 02138, U.S.A.
    
                 Prepared using the Tamkin Foundation Computer Network
    
                                  MPC@CFA.HARVARD.EDU
                URL https://www.minorplanetcenter.net/    ISSN 1523-6714
    
                                       2016 CF32
    
    Observations:
         K16C32F* C2016 02 06.44620 10 51 34.65 +47 22 08.6          21.1 VqEC097G96
         K16C32F  C2016 02 06.45360 10 51 34.89 +47 21 59.5          20.8 VqEC097G96
         K16C32F  C2016 02 06.46100 10 51 35.06 +47 21 50.4          21.1 VqEC097G96
         K16C32F  C2016 02 06.46839 10 51 35.23 +47 21 40.8          21.3 VqEC097G96
         K16C32F  C2016 02 06.50416 10 51 36.28 +47 20 53.6          21.0 VqEC097G96
         K16C32F  C2016 02 06.51107 10 51 36.48 +47 20 44.1          20.9 VqEC097G96
         K16C32F  C2016 02 06.51402 10 51 36.55 +47 20 40.7          21.8 VqEC097I52
         K16C32F  C2016 02 06.51799 10 51 36.69 +47 20 35.3          21.0 VqEC097G96
         K16C32F  C2016 02 06.52195 10 51 36.87 +47 20 29.4          21.6 VqEC097I52
         K16C32F  C2016 02 06.52491 10 51 36.90 +47 20 26.1          20.8 VqEC097G96
         K16C32F  C2016 02 06.52717 10 51 37.04 +47 20 22.1          22.5 VqEC097I52
         K16C32F  C2016 02 06.53511 10 51 37.26 +47 20 11.7          20.6 VqEC097I52
         K16C32F  C2016 02 07.20127410 52 18.79 +47 06 49.1          21.1 VtEC097H01
         K16C32F  C2016 02 07.20601310 52 18.95 +47 06 44.3          21.1 VtEC097H01
         K16C32F  C2016 02 07.21823410 52 19.36 +47 06 31.7          21.0 VtEC097H01
         K16C32F  C2016 02 07.22199610 52 19.47 +47 06 27.7          21.0 VtEC097H01
         K16C32F  C2016 02 08.32474210 53 06.99 +46 43 43.3          20.9 VtEC097H01
         K16C32F  C2016 02 08.32821810 53 07.04 +46 43 39.1          21.1 VtEC097H01
         K16C32F  C2016 02 08.32953 10 53 07.36 +46 43 37.3          21.4 VqEC097I52
         K16C32F  C2016 02 08.33484 10 53 07.44 +46 43 31.9          20.9 VqEC097I52
         K16C32F  C2016 02 08.34268010 53 07.24 +46 43 21.2          21.0 VtEC097H01
         K16C32F  C2016 02 08.34548 10 53 07.61 +46 43 19.5          21.6 VqEC097I52
         K16C32F  C2016 02 08.34590310 53 07.28 +46 43 17.1          20.8 VtEC097H01
    
    Observer details:
    G96 Mt. Lemmon Survey.  Observer D. C. Fuls.  Measurers E. J. Christensen,
        D. C. Fuls, A. R. Gibbs, A. D. Grauer, J. A. Johnson, R. A. Kowalski,
        S. M. Larson, G. J. Leonard, R. G. Matheny, R. L. Seaman, F. C. Shelly.
        1.5-m reflector + CCD.
    H01 Magdalena Ridge Observatory, Socorro.  Observers W. H. Ryan, E. V. Ryan.
        Measurer W. H. Ryan.  2.4-m f/8.9 reflector + CCD.
    I52 Steward Observatory, Mt. Lemmon Station.  Observer A. R. Gibbs.  Measurers
        E. J. Christensen, D. C. Fuls, A. R. Gibbs, A. D. Grauer, J. A. Johnson,
        R. A. Kowalski, S. M. Larson, G. J. Leonard, R. G. Matheny, R. L. Seaman,
        F. C. Shelly.  1.0-m reflector + CCD.
    
    Orbital elements:
    2016 CF32                                                Earth MOID = 0.1508 AU
    Epoch 2016 Jan. 13.0 TT = JDT 2457400.5                 MPC
    M 353.78854              (2000.0)            P               Q
    n   0.53955849     Peri.   92.68813     -0.57603903     -0.81614143
    a   1.4943203      Node    32.62053     +0.71221327     -0.52857352
    e   0.2593646      Incl.    4.86743     +0.40116243     -0.23350202
    P   1.83           H   23.6           G   0.15           U   7
    Residuals in seconds of arc
    160206 G96  0.2-  0.3-    160206 I52  0.4+  0.3-    160208 H01  0.0   0.0
    160206 G96  0.3+  0.0     160206 G96  0.3-  0.4+    160208 H01  0.0   0.1+
    160206 G96  0.1+  0.4+    160206 I52  0.3+  0.6-    160208 I52  0.1-  1.0-
    160206 G96  0.1-  0.3+    160206 I52  0.2-  0.2-    160208 I52  0.0   0.1+
    160206 G96  0.1+  0.0     160207 H01  0.1-  0.0     160208 H01  0.0   0.0
    160206 G96  0.0   0.3-    160207 H01  0.1-  0.0     160208 I52  0.3+  0.7+
    160206 I52  0.3-  0.3+    160207 H01  0.1+  0.1+    160208 H01  0.1-  0.0
    160206 G96  0.1-  0.2+    160207 H01  0.0   0.0
    
    Ephemeris:
    2016 CF32                a,e,i = 1.49, 0.26, 5                   q = 1.1067
    Date    TT    R. A. (2000) Decl.     Delta      r     Elong.  Phase     V
    2016 01 09    09 45 49.8 +50 03 27   0.1645  1.1142   139.9    34.7    21.3
    ...
    2016 01 24    10 30 22.5 +50 18 49   0.1541  1.1068   140.0    34.9    21.2
    ...
    2016 02 01    10 45 20.4 +48 54 32   0.1525  1.1085   141.4    33.7    21.1
    ...
    2016 02 07    10 52 04.8 +47 10 59   0.1532  1.1124   143.1    32.2    21.1
    2016 02 08    10 52 51.6 +46 50 25   0.1534  1.1133   143.4    31.9    21.1
    2016 02 09    10 53 33.2 +46 28 56   0.1538  1.1142   143.7    31.6    21.1
    ...
    2016 02 15    10 56 06.3 +44 01 07   0.1568  1.1210   146.0    29.5    21.1
    ...
    2016 02 23    10 56 31.8 +39 59 51   0.1640  1.1332   149.2    26.5    21.1
    ...
    2016 03 09    10 54 20.4 +31 05 39   0.1898  1.1650   152.8    22.9    21.4
    
    A. U. Tomatic                (C) Copyright 2016 MPC           M.P.E.C. 2016-C97
    

    Read MPEC 2016-C96 Read MPEC 2016-C98


    MPEC number:

    Enter an MPEC number in one of the following forms:

    • 1997-B01 (the full form)
    • J97B01 (the packed version of the full form)
    • B01 (the abbreviated form)